Tracking 17140 objects as of 30-May-2015
HD Live streaming from Space Station

SL-3 R/B

Track SL-3 R/B now!
10-day predictions
SL-3 R/B is classified as:


NORAD ID: 8027
Int'l Code: 1975-064B
Perigee: 838.1 km
Apogee: 913.7 km
Inclination: 81.3 °
Period: 102.3 minutes
Semi major axis: 7246 km
RCS: 6.004 m2 (large)
Launch date: July 11, 1975
Source: Commonwealth of Independent States (former USSR) (CIS)

Note: This is a ROCKET BODY
Your satellite tracking list
Your tracking list is empty





NASA's NSSDC Master Catalog

Two Line Element Set (TLE):
1 08027U 75064B   15149.45928538  .00000031  00000-0  11092-4 0  9994
2 08027 081.3001 057.7303 0052118 220.1594 139.5720 14.07261606 47020

Source of the keplerian elements: AFSPC

N2YO: 313